Regional Weather Roundup
Issued by NWS

Home | Current Version | Previous Version | Graphics & Text | Print | Product List | Glossary On
Versions: 1 2 3 4 5 6 7 8 9 10 11 12 13 14 15 16 17 18 19 20 21 22 23 24 25 26 27 28 29 30 31 32 33 34 35 36 37 38 39 40 41 42 43 44 45 46 47 48 49 50
272
ASUS43 KLSX 282257
RWRMO

WEATHER SUMMARY FOR MISSOURI
NATIONAL WEATHER SERVICE SPRINGFIELD MO
600 PM CDT SAT MAY 28 2016

NOTE: "FAIR" INDICATES FEW OR NO CLOUDS BELOW 12,000 FEET WITH NO
       SIGNIFICANT WEATHER AND/OR OBSTRUCTIONS TO VISIBILITY.
       CURRENT SKY AND/OR WEATHER CONDITIONS ARE NOT AVAILABLE FOR
       CHILLICOTHE AND FARMINGTON.

MOZ001>031-035>038-043-044-053-054-290000-
...NORTHERN AND WESTERN MISSOURI...

CITY           SKY/WX    TMP DP  RH WIND       PRES   REMARKS
KANSAS CTY INT MOSUNNY   75  58  55 SW9       29.92R
LEE`S SUMMIT   MOSUNNY   75  58  55 SW13      29.93R
ST JOSEPH      MOSUNNY   76  60  57 SW12      29.89S
CHILLICOTHE      N/A     76  59  55 SW7       29.90R

$$
MOZ066>068-077>081-088>096-101>105-290000-
...SOUTHWEST MISSOURI...

CITY           SKY/WX    TMP DP  RH WIND       PRES   REMARKS
SPRINGFIELD    MOSUNNY   79  64  60 SW8       29.95F
JOPLIN         SUNNY     79  64  60 S10       29.96S
BRANSON        MOSUNNY   82  61  47 SW7       29.97R

$$
MOZ032>034-039>042-045>050-055>058-069>072-290000-
...CENTRAL MISSOURI...

CITY           SKY/WX    TMP DP  RH WIND       PRES   REMARKS
COLUMBIA       NOT AVBL
JEFFERSON CITY CLOUDY    82  61  48 W13       29.91R
ROLLA          CLOUDY    72  65  78 NW5       29.93R THUNDER
SEDALIA        SUNNY     79  60  52 W13G22    29.93S
WARRENSBURG    SUNNY     77  59  53 SW12      29.92S

$$
MOZ051-052-059>065-290000-
...EAST CENTRAL MISSOURI...

CITY           SKY/WX    TMP DP  RH WIND       PRES   REMARKS
ST LOUIS INTL  PTSUNNY   84  65  52 S15G23    29.92S

$$
MOZ072>076-082>087-097>100-106>115-290000-
...SOUTH CENTRAL AND SOUTHEAST MISSOURI...

CITY           SKY/WX    TMP DP  RH WIND       PRES   REMARKS
CAPE GIRARDEAU PTSUNNY   80  68  66 S10       29.98F
POPLAR BLUFF   MOSUNNY   80  69  69 S9G17     29.98S
WEST PLAINS    SUNNY     81  64  56 S13G23    29.98F

$$



USA.gov is the U.S. government's official web portal to all federal, state and local government web resources and services.